Location: Camerons Lookout
(40.9833°S, 175.9333°E)
Time: 20:53:01
(UTC+00:00)

CBERS 1 LM4 rocket - Pass Details

Date: 14 January 2026
Orbit: 696 x 832 km, 98.7° (Epoch: 17 February)

Event Time Altitude Azimuth Distance (km) Brightness Sun altitude
Rises 09:18:58 0° 167° (SSE) 3,125 8.1 -14.2°
Reaches altitude 10° 09:21:15 10° 166° (SSE) 2,193 7.3 -14.5°
Maximum altitude 09:26:03 87° 76° (ENE) 713 4.3 -15.1°
Drops below altitude 10° 09:30:48 10° 346° (NNW) 2,172 6.5 -15.7°
Enters shadow 09:31:12 - 346° (NNW) 2,338 6.7 -15.8°
